Andover, NJ

3:42 PM EDT on July 21, 2017 (GMT -0400)
Andover

Weather History for K12N - October, 2011

Change the Weather History Date:

Tuesday, October 18, 2011

  Actual Average (KFWN) Record (KFWN)
Temperature  
Mean Temperature 56 °F -  
Max Temperature 69 °F 60 °F 84 °F (1963)
Min Temperature 44 °F 35 °F 20 °F (1978)
Degree Days  
Heating Degree Days 8    
Growing Degree Days 6 (Base 50)    
Moisture  
Dew Point 40 °F    
Average Humidity 64    
Maximum Humidity 93    
Minimum Humidity 26    
Precipitation  
Precipitation 0.01 in - - ()
Sea Level Pressure  
Sea Level Pressure 29.86 in    
Wind  
Wind Speed 1 mph (SW)    
Max Wind Speed 7 mph    
Max Gust Speed -    
Averages and records for this station are not official NWS values.
T = Trace of Precipitation, MM = Missing Value Source: NWS Daily Summary

Daily Weather History Graph

Daily Weather History Graph

Search for Another Location

Airport or City:

Trip Planner

Search our weather history database for the weather conditions in past years. The results will help you decide how hot, cold, wet, or windy it might be!

Date:

Astronomy

Oct. 18, 2011 Rise Set
Actual Time 7:13 AM EDT 6:14 PM EDT
Civil Twilight 6:45 AM EDT 6:42 PM EDT
Nautical Twilight 6:13 AM EDT 7:13 PM EDT
Astronomical Twilight 5:41 AM EDT 7:45 PM EDT
Moon 10:51 PM EDT (10/18) 1:04 PM EDT (10/18)
Length of Visible Light 11h 56m
Length of Day
11h 00m
Waning Gibbous, 65% of the Moon is Illuminated
Oct 18
Waning Gibbous
Oct 19
Last Quarter
Oct 26
New
Nov 2
First Quarter
Nov 10
Full

Hourly Weather History & Observations

Time (EDT) Temp. Windchill Dew Point Humidity Pressure Visibility Wind Dir Wind Speed Gust Speed Precip Events Conditions
12:54 AM 45.0 °F - 42.1 °F 90% 29.81 in - Calm Calm - N/A   Unknown
1:54 AM 44.1 °F - 42.1 °F 93% 29.81 in - Calm Calm - N/A   Unknown
2:00 AM - - - N/A% - - North - - N/A   Unknown
2:54 AM 44.1 °F - 42.1 °F 93% 29.81 in - Calm Calm - N/A   Unknown
3:54 AM 45.0 °F 43.5 °F 39.9 °F 82% 29.81 in - SSW 3.5 mph - N/A   Unknown
4:54 AM 44.1 °F - 41.0 °F 89% 29.83 in - Calm Calm - N/A   Unknown
5:54 AM 44.1 °F - 42.1 °F 93% 29.85 in - Calm Calm - N/A   Unknown
6:54 AM 46.9 °F - 42.1 °F 83% 29.85 in - Calm Calm - N/A   Unknown
7:54 AM 48.0 °F - 43.0 °F 83% 29.87 in - SSW 3.5 mph - N/A   Unknown
8:54 AM 51.1 °F - 41.0 °F 68% 29.88 in - Calm Calm - N/A   Unknown
9:54 AM 57.0 °F - 39.9 °F 53% 29.89 in - Calm Calm - N/A   Unknown
10:54 AM 61.0 °F - 33.1 °F 35% 29.89 in - Variable 4.6 mph - N/A   Unknown
11:54 AM 64.9 °F - 33.1 °F 31% 29.87 in - WSW 4.6 mph - 0.01 in   Unknown
12:54 PM 66.0 °F - 32.0 °F 28% 29.86 in - South 5.8 mph - N/A   Unknown
1:54 PM 68.0 °F - 32.0 °F 26% 29.85 in - Variable 5.8 mph - N/A   Unknown
2:54 PM 69.1 °F - 33.1 °F 26% 29.84 in - SW 6.9 mph - N/A   Unknown
3:54 PM 68.0 °F - 33.1 °F 27% 29.85 in - Variable 4.6 mph - N/A   Unknown
4:54 PM 68.0 °F - 37.9 °F 33% 29.84 in - Calm Calm - N/A   Unknown
5:54 PM 62.1 °F - 43.0 °F 50% 29.85 in - Calm Calm - N/A   Unknown
6:54 PM 57.0 °F - 48.9 °F 74% 29.87 in - Calm Calm - N/A   Unknown
7:54 PM 54.0 °F - 46.0 °F 75% 29.88 in - Calm Calm - N/A   Unknown
8:54 PM 52.0 °F - 45.0 °F 77% 29.89 in - Calm Calm - N/A   Unknown
9:54 PM 52.0 °F - 45.0 °F 77% 29.90 in - Calm Calm - N/A   Unknown
10:54 PM 52.0 °F - 46.0 °F 80% 29.89 in - Calm Calm - N/A   Unknown
11:54 PM 52.0 °F - 46.0 °F 80% 29.89 in - Calm Calm - N/A   Unknown